OBJECT SZ

Last updated on Mon Jan 24 2022 00:02:05 GMT+0000 (Coordinated Universal Time)

1 51278U 98067SZ 22023.43216848 .00126754 00000+0 21105-2 0 9993 2 51278 51.6450 333.4158 0008488 67.6198 23.8373 15.51053755 753

Satellite not in orbit